Overview Statistics Trail Chart Weather Telemetry Raw packets
 

This is the latest recevied weather packets stored in our database for station/object K5SVV. If no packets are shown the sender has not sent any weather packets the latest 10 day(s).

<< 80 81 82 83 84 85 86 >>
Time Temp. Humidity Pressure Rain* Wind** Luminosity Snow
1788108594 33.89° C 46% 1016.2 hPa 0 mm - 757 W/m² -
1788108290 34.44° C 46% 1016.4 hPa 0 mm - 767 W/m² -
1788107986 34.44° C 47% 1016.4 hPa 0 mm - 748 W/m² -
1788107683 33.89° C 47% 1016.6 hPa 0 mm - 727 W/m² -
1788107382 33.89° C 48% 1016.7 hPa 0 mm - 686 W/m² -
1788107078 33.33° C 49% 1016.7 hPa 0 mm - 691 W/m² -
1788106777 33.89° C 49% 1016.6 hPa 0 mm - 698 W/m² -
1788106472 33.33° C 49% 1016.6 hPa 0 mm - 730 W/m² -
1788106167 33.33° C 51% 1016.7 hPa 0 mm - 735 W/m² -
1788105863 33.33° C 52% 1016.7 hPa 0 mm - 710 W/m² -
1788105558 32.78° C 53% 1016.7 hPa 0 mm - 741 W/m² -
1788105255 32.78° C 52% 1016.6 hPa 0 mm - 698 W/m² -
1788104949 32.22° C 53% 1016.8 hPa 0 mm - 674 W/m² -
1788104645 32.78° C 54% 1016.8 hPa 0 mm - 660 W/m² -
1788104342 32.22° C 55% 1016.8 hPa 0 mm - 646 W/m² -
1788104037 31.67° C 56% 1016.7 hPa 0 mm - 640 W/m² -
1788103735 31.67° C 56% 1016.6 hPa 0 mm - 593 W/m² -
1788103430 31.67° C 58% 1016.8 hPa 0 mm - 543 W/m² -
1788103125 31.67° C 58% 1016.7 hPa 0 mm - 548 W/m² -
1788102824 31.11° C 58% 1016.7 hPa 0 mm - 511 W/m² -
1788102519 30.56° C 60% 1016.8 hPa 0 mm - 496 W/m² -
1788102219 30.56° C 62% 1016.7 hPa 0 mm - 515 W/m² -
1788101913 30.56° C 63% 1016.7 hPa 0 mm - 476 W/m² -
1788101622 30° C 65% 1016.7 hPa 0 mm - 414 W/m² -
1788101304 30° C 65% 1016.6 hPa 0 mm - 437 W/m² -

* Rain latest hour (hover to see other rain measurements)
** Current wind speed in m/s (hover to see current wind gust speed)